Regional Weather Roundup
Issued by NWS Midland/Odessa, TX

Skip options and go directly to product.
Home | Oldest Version | Previous Version | Current Version | All | Text Only | Save Text | Print | Product List | Glossary Off

Skip product version selection by date and time.   

722
ASUS44 KMAF 060610
RWRMAF
MIDLAND AREA WEATHER ROUNDUP
NATIONAL WEATHER SERVICE MIDLAND TX
100 AM CDT WED MAY 06 2015

...IN SOUTHWEST TEXAS AND SOUTHEAST NEW MEXICO...

CITY           SKY/WX    TMP DP  RH WIND       PRES   REMARKS
ALPINE         PTCLDY    57  35  43 S8        30.03S
ANDREWS        FAIR      64  59  83 S12       29.91S
ARTESIA        CLEAR     61  45  55 SW9       29.89S
BIG SPRING     CLOUDY    69  63  81 SE14      29.93S
CARLSBAD       CLEAR     57  46  66 SW8       29.88R
DRYDEN           N/A     73  67  81 E14G22    29.88F
FORT STOCKTON  CLEAR     66  62  87 S16G23    29.89S
GUAD PASS      CLEAR     59  33  37 SW16      30.00R
HOBBS          CLEAR     54  52  94 S8        29.91R
MARFA          CLEAR     48  30  49 NW10      30.00F
MIDLAND AIRPK  CLEAR     68  62  81 S8        29.92R
MIDLAND INTL   CLEAR     67  62  84 S10       29.91S
ODESSA         CLEAR     66  60  81 S7        29.92R
PECOS          CLEAR     63  56  80 SE5       29.88S
PRESIDIO       FAIR      73  31  21 N12G17    29.85S
SEMINOLE       CLEAR     60  53  77 S10       29.91S
SNYDER         PTCLDY    64  62  94 S10       29.92S
WINK           CLEAR     67  60  78 SE9       29.88S
$$
...OTHER STATIONS IN TEXAS...

CITY           SKY/WX    TMP DP  RH WIND       PRES   REMARKS
ABILENE        MOCLDY    68  63  84 S17       29.92S
AMARILLO       PTCLDY    53  50  89 S14       29.85F
AUSTIN         LGT RAIN  71  71 100 S10       29.93S
BROWNSVILLE    CLOUDY    77  73  87 SE17G24   29.90F
CORPUS CHRISTI MOCLDY    76  71  85 SE22      29.93S
DALLAS FTW     CLOUDY    71  66  84 S21G35    29.93F
DEL RIO        CLOUDY    73  70  90 SE12G22   29.87F
EL PASO        CLEAR     70  37  29 NW12      29.94R
HOUSTON INT    CLOUDY    75  67  76 SE18G24   30.00F
LUBBOCK        PTCLDY    61  58  90 S12       29.87F
SAN ANGELO     MOCLDY    71  64  78 S12       29.90F
SAN ANTONIO    CLOUDY    74  69  85 S14       29.95S
WACO           MOCLDY    71  67  87 SE14      29.96F
WICHITA FALLS  NOT AVBL
$$
...OTHER LOCATIONS IN NEW MEXICO...

CITY           SKY/WX    TMP DP  RH WIND       PRES   REMARKS
ALAMAGORDO     PTCLDY    63  37  39 S6        29.96R
ALBUQUERQUE    PTCLDY    53  46  77 S10       29.97S
CANNON AFB     NOT AVBL
CLOVIS         MOCLDY    54  48  82 W5        29.89S
HOLLOMAN AFB   PTCLDY    63  40  42 SW7       29.93S
ROSWELL        CLEAR     58  47  66 W7        29.87F
RUIDOSO        PTCLDY    50  34  53 NW7       30.03S
SANTA FE       MOCLDY    47  44  90 N3        29.96S
TRUTH OR CONSE CLEAR     56  35  45 W6        29.96S
TUCUMCARI      PTCLDY    55  46  71 SW10      29.83S
$$

USA.gov is the U.S. government's official web portal to all federal, state and local government web resources and services.